User: anonymous   Login
Location: Unspecified
(0.0000°N, 0.0000°E)
Time: 06:32:46
(UTC+00:00)
Language:

Vela 3A - Orbit

View from above orbital plane
View from above orbital plane
View from above satellite
View from above satellite

Ground track
Ground track

The orbit data is extracted from the following two-line orbital elements,

1 01458U 65058A   15182.71259841 -.00000570  00000-0  00000+0 0  9998
2 01458 022.8056 011.2889 5080953 195.9775 000.7545 00.21446523 77647
Epoch (UTC): 01 July 2015 17:06:08
Eccentricity: 0.5080953
inclination: 22.8056°
perigee height: 51614 km
apogee height: 171417 km
right ascension of ascending node: 11.2889°
argument of perigee: 195.9775°
revolutions per day: 0.21446523
mean anomaly at epoch: 0.7545°
orbit number at epoch: 7764

The dashed part of the orbit path shows where the satellite is in the earth's shadow,  

DLR